Skip Page Navigation
NASA JPL Caltech
NASA Logo - Jet Propulsion Laboratory + View the NASA Portal
+ Near-Earth Object (NEO) Program
Search JPL
JPL Home Earth Solar System Stars & Galaxies Technology
JPL Solar System Dynamics
BODIES ORBITS EPHEMERIDES TOOLS PHYSICAL DATA DISCOVERY FAQ SITE MAP
JPL Small-Body Database Browser
Search: [ help ]  
162082 (1998 HL1)
Classification: Apollo [NEO, PHA]          SPK-ID: 2162082
Ephemeris | Orbit Diagram | Orbital Elements | Physical Parameters | Discovery Circumstances | Close-Approach Data ]

[ hide orbit diagram ]
Orbit Diagram
Note: Make sure you have Java enabled on your browser to see the applet. This applet is provided as a 3D orbit visualization tool. The applet was implemented using 2-body methods, and hence should not be used for determining accurate long-term trajectories (over several years or decades) or planetary encounter circumstances. For accurate long-term ephemerides, please instead use our Horizons system.
Orbit Viewer

Additional Notes: the orbits shown in the applet are color coded. The planets are white lines, and the asteroid/comet is a blue line. The bright white line indicates the portion of the orbit that is above the ecliptic plane, and the darker portion is below the ecliptic plane. Likewise for the asteroid/comet orbit, the light blue indicates the portion above the ecliptic plane, and the dark blue the portion below the ecliptic plane.

Orbit Viewer applet originally written and kindly provided by Osamu Ajiki (AstroArts), and further modified by Ron Baalke (JPL).


Orbital Elements at Epoch 2456400.5 (2013-Apr-18.0) TDB
Reference: JPL 53 (heliocentric ecliptic J2000)
 Element Value Uncertainty (1-sigma)   Units 
e .1872247998848337 1.2284e-07  
a 1.246265173579944 6.1837e-09 AU
q 1.012933425853002 1.5508e-07 AU
i 20.04624364319661 2.0185e-05 deg
node 213.587862040145 2.193e-05 deg
peri 148.4823125927861 4.6403e-05 deg
M 133.0542289334734 3.5242e-05 deg
tp 2456212.680665615872
(2012-Oct-12.18066562)
5.0549e-05 JED
period 508.1759589324541
1.39
3.7822e-06
1.036e-08
d
yr
n .7084160391142207 5.2725e-09 deg/d
Q 1.479596921306887 7.3415e-09 AU
  Orbit Determination Parameters
   # obs. used (total)      253  
   data-arc span      5349 days (14.64 yr)  
   first obs. used      1998-04-18  
   last obs. used      2012-12-09  
   planetary ephem.      DE405  
   SB-pert. ephem.      SB405-CPV-2  
   condition code      0  
   fit RMS      .52458  
   data source      ORB  
   producer      Otto Matic  
   solution date      2013-Apr-29 15:39:35  

Additional Information
 Earth MOID = .0414104 AU 
 T_jup = 5.078 
[ show covariance matrix ]

Ephemeris | Orbit Diagram | Orbital Elements | Physical Parameters | Discovery Circumstances | Close-Approach Data ]

Physical Parameter Table
Parameter Symbol Value Units Sigma Reference Notes
absolute magnitude H 18.825 mag .57767 53 autocmod 2.5c

162082 (1998 HL1)          Discovered 1998-Apr-18 by LINEAR at Socorro (704)
Reference: 20070926/Numbers.arcLast Updated: 2007-09-30

[ show close-approach data ]
Ephemeris | Orbit Diagram | Orbital Elements | Physical Parameters | Discovery Circumstances | Close-Approach Data ]
ABOUT SSD CREDITS/AWARDS PRIVACY/COPYRIGHT GLOSSARY LINKS
FirstGov 2013-Jun-19 14:57 UT
(server date/time)  
NASA Home Page
Site Manager:   Donald K. Yeomans
Webmaster  Alan B. Chamberlin